Total_Precipitation_Accumulation
1.71 1.79 1.88 2.02 1.92 1.85 1.85 1.80 1.73 1.72 1.81 1.81 1.78 1.83 1.83 1.81 1.83 1.91 1.90 1.85 1.83 1.78 1.72 1.72 1.70 1.72 1.83 1.83 1.78 1.73 1.68 1.79 1.81 1.11 0.82 0.83 0.95 1.00 1.01 0.93 0.82 0.82 0.87
1.67 1.72 1.79 1.93 1.99 1.90 1.87 1.82 1.70 1.61 1.65 1.75 1.80 1.83 1.91 1.94 1.89 1.92 1.91 1.87 1.95 1.92 1.81 1.76 1.73 1.73 1.80 1.85 1.93 1.88 1.73 1.66 1.75 1.48 1.06 0.98 1.07 1.12 1.16 1.18 1.08 0.97 0.92
1.60 1.63 1.71 1.83 1.90 1.89 1.84 1.85 1.79 1.73 1.73 1.75 1.84 1.91 1.98 2.03 2.08 2.11 2.12 2.09 2.12 2.11 2.03 1.97 1.84 1.85 1.90 1.86 1.90 1.93 1.84 1.74 1.70 1.67 1.38 1.18 1.17 1.17 1.28 1.33 1.33 1.27 1.15
1.56 1.67 1.66 1.71 1.75 1.80 1.83 1.80 1.86 1.92 1.96 1.99 1.98 1.99 2.04 2.13 2.26 2.36 2.42 2.39 2.31 2.27 2.23 2.19 2.10 2.02 2.03 2.03 2.04 1.97 1.90 1.92 1.86 1.84 1.66 1.45 1.36 1.29 1.40 1.53 1.62 1.54 1.40
1.46 1.59 1.63 1.65 1.77 1.88 1.93 1.97 1.93 2.03 2.09 2.04 2.06 2.08 2.03 2.19 2.52 2.68 2.57 2.41 2.27 2.17 2.10 2.09 2.14 2.27 2.31 2.35 2.40 2.24 2.11 2.19 2.14 2.09 1.91 1.66 1.48 1.48 1.57 1.59 1.76 1.71 1.64
1.35 1.44 1.51 1.64 1.76 1.93 2.00 2.08 2.09 2.09 2.14 2.13 2.07 2.06 2.03 2.10 2.59 2.76 2.34 1.99 1.93 1.97 1.95 1.83 1.83 2.06 2.15 2.26 2.41 2.41 2.41 2.48 2.50 2.40 2.19 1.90 1.55 1.43 1.57 1.84 2.00 2.15 2.09
1.21 1.32 1.40 1.56 1.66 1.76 1.83 1.88 1.94 1.91 1.90 1.97 2.01 1.92 1.86 1.97 2.39 2.48 2.17 1.68 1.56 1.62 1.66 1.65 1.61 1.67 1.91 1.85 2.03 2.15 2.21 2.36 2.53 2.58 2.54 2.09 1.78 1.63 1.90 2.15 2.17 2.29 2.14
1.09 1.20 1.24 1.39 1.54 1.59 1.64 1.68 1.72 1.68 1.71 1.83 1.82 1.68 1.59 1.68 2.07 2.20 1.99 1.56 1.48 1.51 1.53 1.54 1.54 1.54 1.71 1.96 2.02 1.93 1.81 1.89 2.14 2.31 2.48 2.29 2.08 2.03 2.30 2.60 2.69 2.75 2.49
0.99 1.07 1.10 1.19 1.38 1.41 1.49 1.58 1.57 1.59 1.61 1.62 1.61 1.53 1.44 1.49 1.84 2.10 1.94 1.47 1.52 1.52 1.49 1.55 1.53 1.49 1.86 2.12 2.02 1.93 1.79 1.74 1.88 2.20 2.40 2.47 2.51 2.56 2.72 3.07 3.31 3.43 3.18
0.92 0.99 1.01 1.04 1.18 1.22 1.27 1.36 1.39 1.42 1.49 1.53 1.52 1.47 1.40 1.37 1.65 2.04 2.04 1.55 1.55 1.51 1.49 1.55 1.73 1.69 1.89 1.99 1.85 1.92 1.97 1.73 1.57 1.69 1.83 1.92 1.96 2.08 2.44 2.67 3.03 3.41 3.31
0.84 0.89 0.93 0.99 1.07 1.10 1.14 1.19 1.27 1.33 1.40 1.45 1.48 1.43 1.35 1.35 1.47 1.81 2.18 1.85 1.65 1.55 1.51 1.53 1.58 1.81 1.83 1.88 1.86 1.82 2.01 1.84 1.60 1.66 1.69 1.67 1.72 1.85 2.04 2.28 2.67 3.10 3.35
0.82 0.88 0.93 0.97 1.00 1.01 1.06 1.14 1.16 1.27 1.41 1.42 1.39 1.40 1.37 1.35 1.40 1.60 1.93 2.06 1.92 1.66 1.55 1.38 1.41 1.68 1.72 1.82 1.79 1.86 1.96 1.87 1.72 1.75 1.75 1.71 1.71 1.80 1.93 2.07 2.32 2.61 2.81
0.80 0.86 0.93 0.98 1.00 1.04 1.07 1.14 1.19 1.29 1.43 1.43 1.36 1.33 1.34 1.30 1.38 1.63 1.65 1.73 1.87 1.72 1.63 1.68 1.59 1.62 1.61 1.58 1.66 1.78 1.75 1.65 1.73 1.77 1.69 1.63 1.63 1.72 1.78 1.89 2.02 2.24 2.46
0.81 0.82 0.87 0.98 1.05 1.05 1.08 1.14 1.18 1.25 1.41 1.47 1.43 1.39 1.31 1.26 1.36 1.60 1.56 1.51 1.65 1.72 1.76 1.77 1.72 1.67 1.62 1.55 1.58 1.55 1.50 1.56 1.69 1.68 1.57 1.48 1.48 1.60 1.75 1.86 2.00 2.11 2.36
0.81 0.81 0.84 0.94 1.01 1.05 1.09 1.14 1.20 1.20 1.42 1.61 1.51 1.50 1.49 1.49 1.54 1.79 1.78 1.69 1.71 1.75 1.81 1.83 1.74 1.67 1.66 1.56 1.47 1.43 1.47 1.56 1.63 1.55 1.52 1.51 1.52 1.57 1.65 1.75 1.98 2.10 2.26
0.87 0.86 0.88 0.94 0.97 1.00 1.04 1.12 1.23 1.25 1.33 1.33 1.38 1.47 1.44 1.56 1.64 1.62 1.68 1.72 1.75 1.82 1.88 1.84 1.63 1.50 1.49 1.45 1.43 1.41 1.38 1.41 1.42 1.47 1.52 1.53 1.58 1.62 1.61 1.62 1.84 2.06 2.15
0.93 0.95 0.96 0.97 0.97 1.00 0.98 1.02 1.14 1.17 1.19 1.21 1.24 1.31 1.44 1.55 1.50 1.47 1.54 1.58 1.60 1.61 1.61 1.50 1.40 1.38 1.36 1.34 1.35 1.36 1.39 1.33 1.33 1.42 1.47 1.47 1.52 1.58 1.61 1.61 1.67 1.84 1.96
0.97 1.02 1.05 1.02 1.00 1.01 0.98 0.96 1.02 1.14 1.25 1.29 1.32 1.36 1.42 1.50 1.50 1.49 1.56 1.62 1.61 1.49 1.34 1.31 1.31 1.29 1.29 1.31 1.35 1.36 1.35 1.34 1.36 1.40 1.42 1.44 1.49 1.58 1.62 1.58 1.60 1.72 1.81
1.05 1.06 1.08 1.08 1.05 1.02 1.01 1.01 1.02 1.07 1.17 1.30 1.39 1.48 1.54 1.54 1.53 1.52 1.45 1.38 1.36 1.33 1.27 1.24 1.20 1.20 1.24 1.29 1.33 1.32 1.33 1.34 1.32 1.34 1.36 1.38 1.41 1.51 1.53 1.43 1.46 1.59 1.73
1.13 1.22 1.20 1.15 1.13 1.09 1.07 1.09 1.11 1.14 1.17 1.23 1.34 1.44 1.57 1.61 1.54 1.49 1.34 1.26 1.29 1.29 1.26 1.26 1.21 1.18 1.24 1.30 1.35 1.35 1.35 1.31 1.29 1.30 1.27 1.26 1.29 1.37 1.41 1.34 1.38 1.48 1.53
1.17 1.22 1.25 1.19 1.16 1.16 1.18 1.18 1.20 1.23 1.26 1.25 1.26 1.37 1.65 1.66 1.46 1.28 1.23 1.23 1.26 1.30 1.30 1.29 1.27 1.26 1.28 1.32 1.33 1.32 1.32 1.27 1.25 1.28 1.27 1.22 1.22 1.26 1.25 1.27 1.29 1.33 1.40
1.15 1.18 1.14 1.15 1.19 1.23 1.28 1.27 1.27 1.27 1.26 1.27 1.30 1.35 1.43 1.36 1.29 1.23 1.21 1.21 1.21 1.25 1.30 1.35 1.32 1.25 1.27 1.33 1.36 1.35 1.29 1.21 1.14 1.17 1.20 1.17 1.16 1.16 1.17 1.19 1.19 1.24 1.32
1.14 1.16 1.15 1.15 1.19 1.27 1.27 1.21 1.23 1.25 1.28 1.29 1.29 1.30 1.29 1.29 1.27 1.23 1.23 1.23 1.20 1.17 1.17 1.26 1.28 1.19 1.12 1.16 1.22 1.30 1.34 1.23 1.12 1.15 1.24 1.21 1.13 1.09 1.11 1.14 1.10 1.16 1.22
1.12 1.13 1.14 1.18 1.21 1.21 1.22 1.22 1.22 1.22 1.29 1.35 1.34 1.31 1.31 1.30 1.26 1.18 1.14 1.16 1.14 1.10 1.10 1.15 1.17 1.12 1.06 1.07 1.10 1.11 1.12 1.15 1.19 1.20 1.21 1.22 1.15 1.07 1.10 1.12 1.09 1.08 1.13
1.08 1.11 1.14 1.21 1.25 1.25 1.26 1.24 1.23 1.24 1.29 1.34 1.34 1.32 1.28 1.25 1.20 1.15 1.09 1.07 1.08 1.07 1.03 1.05 1.10 1.10 1.02 0.98 1.01 1.04 1.15 1.24 1.32 1.43 1.52 1.51 1.33 1.17 1.15 1.15 1.10 1.05 1.07
1.03 1.08 1.14 1.22 1.28 1.27 1.28 1.28 1.24 1.25 1.31 1.31 1.29 1.29 1.27 1.25 1.19 1.16 1.12 1.09 1.11 1.08 1.03 0.99 0.99 1.03 1.03 0.98 0.98 1.06 1.16 1.23 1.35 1.58 1.80 1.85 1.56 1.25 1.14 1.15 1.06 1.03 1.05